Regional Weather Roundup
Issued by NWS

Home | Current Version | Previous Version | Text Only | Print | Product List | Glossary Off
Versions: 1 2 3 4 5 6 7 8 9 10 11 12 13 14 15 16 17 18 19 20 21 22 23 24 25 26 27 28 29 30 31 32 33 34 35 36 37 38 39 40 41 42 43 44 45 46 47 48 49 50

000
ASUS43 KMKX 231711
RWRWI

WISCONSIN REGIONAL WEATHER ROUNDUP
NATIONAL WEATHER SERVICE MILWAUKEE/SULLIVAN WI
1200 PM CDT TUE MAY 23 2017

NOTE: "FAIR" INDICATES FEW OR NO CLOUDS BELOW 12,000 FEET WITH NO
SIGNIFICANT WEATHER AND/OR OBSTRUCTIONS TO VISIBILITY.

WIZ001-002-006>008-014>016-023>028-231800-
NORTHWEST WISCONSIN

CITY           SKY/WX    TMP DP  RH WIND       PRES   REMARKS
SUPERIOR ARPT  NOT AVBL
ASHLAND        CLOUDY    53  46  77 N12       29.88F
HAYWARD        CLOUDY    55  44  66 NE8       29.85F
SIREN          CLOUDY    56  45  65 E7        29.85S
CUMBERLAND     CLOUDY    52  43  71 NE9       29.84S
RICE LAKE      CLOUDY    54  48  80 N8        29.85S
CHETEK         CLOUDY    54  47  77 E6        29.83F
LADYSMITH      CLOUDY    54  46  72 E9        29.85F
EAU CLAIRE     LGT RAIN  52  48  86 NE7       29.80F
MENOMONIE      DRIZZLE   54  49  81 NE8       29.82S
NEW RICHMOND   CLOUDY    55  45  69 NE9       29.83S
OSCEOLA        CLOUDY    58  44  59 NE9       29.85F
$$

WIZ003>005-009-010-017-018-231800-
NORTH CENTRAL WISCONSIN

CITY           SKY/WX    TMP DP  RH WIND       PRES   REMARKS
MANITOWISH WTR CLOUDY    51  49  93 SE6       29.85S
ARBOR VITAE    DRIZZLE   49  47  92 CALM      29.84F
WOODRUFF       DRIZZLE   49  47  92 CALM      29.84F
RHINELANDER    CLOUDY    52  47  83 NE6       29.85S
EAGLE RIVER    CLOUDY    51  46  81 E5        29.85S
LAND O LAKES   CLOUDY    49  46  89 CALM      29.87F
PHILLIPS       CLOUDY    51  44  76 NE8       29.84S
TOMAHAWK       CLOUDY    50  47  88 NE5       29.84F
MEDFORD        CLOUDY    53  47  79 NE10      29.80F
MERRILL        CLOUDY    54  47  78 NE10      29.83S
$$

WIZ029-030-035-036-043>047-231800-
CENTRAL WISCONSIN

CITY           SKY/WX    TMP DP  RH WIND       PRES   REMARKS
WAUSAU         CLOUDY    54  45  71 NE8       29.79F
MOSINEE        CLOUDY    54  45  71 NE16      29.80F
MARSHFIELD     CLOUDY    56  45  66 E13       29.77F
STEVENS POINT  CLOUDY    53  44  72 NE13G22   29.79F
WAUPACA        CLOUDY    57  49  74 N9        29.79S
WAUTOMA        NOT AVBL
WISC RAPIDS    CLOUDY    56  48  74 E12       29.79S
CAMP DOUGLAS   CLOUDY    55  50  82 NE5       29.76F
$$

WIZ011>013-019>022-031-037>040-048>050-231800-
NORTHEAST WISCONSIN

CITY           SKY/WX    TMP DP  RH WIND       PRES   REMARKS
ANTIGO         CLOUDY    51  44  76 E8        29.83S
SHAWANO        CLOUDY    54  48  81 NE9       29.83R
OCONTO         CLOUDY    51  48  89 N5        29.81F
STURGEON BAY   CLOUDY    54  46  74 E9        29.82F
GREEN BAY      CLOUDY    54  50  86 NE15      29.81R
MANITOWOC        N/A     53  47  79 N6        29.80S
APPLETON       PTSUNNY   55  46  71 NE12      29.77F
CLINTONVILLE   CLOUDY    52  45  76 NE7       29.81S
OSHKOSH        CLOUDY    60  54  80 NE9       29.76F
$$

WIZ032>034-041-042-053>061-231800-
SOUTHWEST WISCONSIN

CITY           SKY/WX    TMP DP  RH WIND       PRES   REMARKS
LA CROSSE      CLOUDY    58  53  84 NW8       29.75F
SPARTA         CLOUDY    55  50  83 NE8       29.77S
VIROQUA        CLOUDY    55  52  88 MISG      29.75F
BOSCOBEL       CLOUDY    61  51  70 CALM      29.75F
PRAIRIE DU CHI CLOUDY    59  50  70 W6        29.75F
PLATTEVILLE    CLOUDY    58  53  84 W6        29.77S
$$

WIZ056-057-062-063-064-067-068-231800-
SOUTH CENTRAL WISCONSIN

CITY           SKY/WX    TMP DP  RH WIND       PRES   REMARKS
REEDSBURG      CLOUDY    58  54  84 CALM      29.75F
BARABOO/DELLS  CLOUDY    61  51  69 SW5       29.75S
LONE ROCK      MOSUNNY   61  51  70 CALM      29.74F
MINERAL POINT  CLOUDY    57  54  88 S6        29.76F
MADISON        CLOUDY    61  51  70 SW7       29.75F
MIDDLETON      CLOUDY    63  52  69 SW7       29.76S
WATERTOWN      CLOUDY    61  55  80 S9        29.76F
MONROE         PTSUNNY   61  50  67 SW8       29.76F
JANESVILLE     CLOUDY    63  54  72 SW6       29.76F
$$

WIZ051-052-058>065-066-070>072-231800-
SOUTHEAST WISCONSIN

CITY           SKY/WX    TMP DP  RH WIND       PRES   REMARKS
MILWAUKEE      PTSUNNY   66  55  67 SW8       29.77F
WAUKESHA       CLOUDY    59  54  82 SW5       29.78S
MILWAUKEE/TIMM CLOUDY    63  52  67 S7        29.78S
RACINE         PTSUNNY   66  53  63 SW7       29.78F
KENOSHA        PTSUNNY   65  52  62 SW13      29.78F
FOND DU LAC    LGT RAIN  63  52  67 N5        29.75F
SHEBOYGAN      CLOUDY    56  52  86 NE12      29.78S
WEST BEND      CLOUDY    61  54  77 S8        29.76F
JUNEAU         CLOUDY    61  52  73 SW8       29.77S
$$

LSZ147-162-231800-
LAKE SUPERIOR

STATION/POSITION TIME  TEMP    WIND        PRES    WAVE
                       AIR SEA DIR/SP/G            HT/PER
                 (UTC) (F)     (DEG/KT/KT) (MB)    (FT/S)
W MID LAKE BUOY  1550   40 37   50/  6/  6 1013.0R   0
DEVILS ISLAND    1700   42      50/ 12/ 13 1013.1S
PORT WING        1640   43      30/ 13/ 15 1012.2F
SAXON HARBOR     1630   43     330/  5/  6 1011.9S
$$

LMZ867-665-643>646-231800-
LAKE MICHIGAN

STATION/POSITION TIME  TEMP    WIND        PRES    WAVE
                       AIR SEA DIR/SP/G            HT/PER
                 (UTC) (F)     (DEG/KT/KT) (MB)    (FT/S)
CHAMBERS ISLAND  1640   48      10/  8/ 12 1009.8F
N MID LAKE BUOY  1650   41 39   50/  8/  8 1011.3F   1
NORTHPORT PIER   1640   50      40/  7/ 10 1010.2F
KEWAUNEE LAKESHO 1648   46      30/ 11/ 16 1009.1F
SHEBOYGAN LAKESH 1700   47     350/  9/  9 1008.5F
PORT WASHINGTON  1630   53     170/  4/  5 1009.1S
ATWATER BUOY     1609   49     140/  8/  8 1008.4F
MILWAUKEE LAKESH 1650   58     100/  4/  5   N/A
S MID LAKE BUOY  1550   49 45  190/  8/ 10 1009.5F   1
KENOSHA   LAKESH 1700   64     180/  8/ 11 1008.1
$$

TC  - TEMPERATURE IN CELSIUS
VSB - VISIBILITY IN STATUTE MILES
WCI - WIND CHILL INDEX
HX  - HEAT INDEX




USA.gov is the U.S. government's official web portal to all federal, state and local government web resources and services.